Weather History for Lincoln, NE

Change the Weather History Date:

Thursday, January 3, 2013

  Actual Average Record
Temperature  
Mean Temperature 23 °F 24 °F  
Max Temperature 31 °F 35 °F 63 °F (1909)
Min Temperature 15 °F 14 °F -17 °F (1887)
Degree Days  
Heating Degree Days 42 40  
Month to date heating degree days 137 120  
Since 1 July heating degree days 2565 2565  
Cooling Degree Days 0 0  
Month to date cooling degree days 0 0  
Year to date cooling degree days 0 0  
Moisture  
Dew Point 18 °F    
Average Humidity 72    
Maximum Humidity 81    
Minimum Humidity 63    
Precipitation  
Precipitation 0.00 in 0.02 in 1.40 in (1949)
Month to date precipitation 0.00 0.06  
Year to date precipitation 0.00 0.06  
Snow  
Snow 0.00 in 0.20 in - ()
Month to date snowfall 0.0 0.5  
Since 1 July snowfall 5.1 9.2  
Snow Depth 1.00 in    
Sea Level Pressure  
Sea Level Pressure 30.40 in    
Wind  
Wind Speed 6 mph (NW)    
Max Wind Speed 18 mph    
Max Gust Speed 21 mph    
Visibility 10 miles    
Events      
T = Trace of Precipitation, MM = Missing Value Source: NWS Daily Summary

Daily Weather History Graph

Daily Weather History Graph

Search for Another Location

Airport:

Trip Planner

Search our weather history database for the weather conditions in past years. The results will help you decide how hot, cold, wet, or windy it might be!

Date:

Astronomy

Jan. 03, 2013 Rise Set
Actual Time 7:51 AM CST 5:12 PM CST
Civil Twilight 7:20 AM CST 5:42 PM CST
Nautical Twilight 6:46 AM CST 6:17 PM CST
Astronomical Twilight 6:13 AM CST 6:50 PM CST
Moon 11:51 PM CST (1/3) 11:01 AM CST (1/3)
Length of Visible Light 10h 21m
Length of Day
9h 20m
Waning Gibbous, 65% of the Moon is Illuminated
Jan 3
Waning Gibbous
Jan 4
Last Quarter
Jan 11
New
Jan 18
First Quarter
Jan 26
Full

Hourly Weather History & Observations

Time (CST) Temp. Windchill Dew Point Humidity Pressure Visibility Wind Dir Wind Speed Gust Speed Precip Events Conditions
12:54 AM 30.0 °F 24.1 °F 25.0 °F 82% 30.29 in 10.0 mi NW 5.8 mph - N/A   Overcast
1:54 AM 30.9 °F 21.2 °F 24.1 °F 76% 30.30 in 10.0 mi NNW 12.7 mph - N/A   Overcast
2:54 AM 30.0 °F 22.4 °F 23.0 °F 75% 30.33 in 10.0 mi NW 8.1 mph - N/A   Overcast
3:54 AM 28.0 °F 21.7 °F 21.9 °F 78% 30.34 in 10.0 mi NW 5.8 mph - N/A   Overcast
4:54 AM 28.9 °F 18.6 °F 21.9 °F 75% 30.34 in 10.0 mi NW 12.7 mph - N/A   Overcast
5:54 AM 28.9 °F 19.2 °F 21.0 °F 72% 30.36 in 10.0 mi NW 11.5 mph - N/A   Overcast
6:54 AM 28.9 °F 21.1 °F 21.9 °F 75% 30.38 in 10.0 mi NW 8.1 mph - N/A   Overcast
7:47 AM 28.4 °F 19.7 °F 21.2 °F 74% 30.35 in 10.0 mi NNW 9.2 mph - N/A   Overcast
7:54 AM 28.0 °F 19.3 °F 21.9 °F 78% 30.40 in 10.0 mi NNW 9.2 mph - N/A   Overcast
8:17 AM 28.4 °F 22.2 °F 21.2 °F 74% 30.36 in 9.0 mi NW 5.8 mph - N/A   Overcast
8:28 AM 28.4 °F 22.2 °F 21.2 °F 74% 30.37 in 9.0 mi NNW 5.8 mph - N/A   Overcast
8:54 AM 26.1 °F 15.0 °F 21.9 °F 84% 30.43 in 7.0 mi North 12.7 mph - N/A   Overcast
9:37 AM 24.8 °F 12.9 °F 19.4 °F 80% 30.41 in 8.0 mi North 13.8 mph - N/A   Overcast
9:54 AM 26.1 °F 16.2 °F 19.9 °F 78% 30.46 in 7.0 mi NNE 10.4 mph - N/A   Overcast
10:06 AM 24.8 °F 13.4 °F 19.4 °F 80% 30.42 in 8.0 mi North 12.7 mph - N/A   Overcast
10:42 AM 24.8 °F 12.4 °F 17.6 °F 74% 30.43 in 10.0 mi North 15.0 mph - N/A   Overcast
10:54 AM 23.0 °F 11.1 °F 16.0 °F 74% 30.48 in 10.0 mi North 12.7 mph - N/A   Overcast
11:54 AM 23.0 °F 13.9 °F 15.1 °F 72% 30.47 in 10.0 mi North 8.1 mph - N/A   Partly Cloudy
12:54 PM 24.1 °F 19.7 °F 15.1 °F 69% 30.45 in 10.0 mi North 3.5 mph - N/A   Clear
1:54 PM 26.1 °F - 15.1 °F 63% 30.43 in 10.0 mi Calm Calm - N/A   Clear
2:15 PM 26.6 °F - 15.8 °F 64% 30.38 in 10.0 mi Calm Calm - N/A   Mostly Cloudy
2:54 PM 27.0 °F - 17.1 °F 66% 30.43 in 10.0 mi Calm Calm - N/A   Overcast
3:54 PM 26.1 °F 20.5 °F 16.0 °F 66% 30.43 in 10.0 mi West 4.6 mph - N/A   Overcast
4:23 PM 26.6 °F 22.6 °F 15.8 °F 64% 30.38 in 10.0 mi WNW 3.5 mph - N/A   Scattered Clouds
4:54 PM 25.0 °F 20.7 °F 16.0 °F 69% 30.43 in 10.0 mi West 3.5 mph - N/A   Clear
5:54 PM 21.9 °F - 15.1 °F 75% 30.43 in 10.0 mi Calm Calm - N/A   Clear
6:54 PM 18.0 °F 11.1 °F 12.9 °F 81% 30.44 in 10.0 mi SSW 4.6 mph - N/A   Clear
7:54 PM 18.0 °F 9.8 °F 12.9 °F 81% 30.43 in 10.0 mi SSW 5.8 mph - N/A   Clear
8:54 PM 18.0 °F - 12.9 °F 81% 30.42 in 10.0 mi Calm Calm - N/A   Clear
9:54 PM 18.0 °F 11.1 °F 12.9 °F 81% 30.41 in 10.0 mi SW 4.6 mph - N/A   Clear
10:54 PM 17.1 °F 11.7 °F 12.9 °F 84% 30.41 in 6.0 mi WSW 3.5 mph - N/A   Clear
11:54 PM 16.0 °F 10.4 °F 12.9 °F 88% 30.40 in 9.0 mi SW 3.5 mph - N/A   Clear